sat.trackr.live / text

‹ back to catalog

STARLINK-36629

NORAD 67596 · 2026-018H

PAYLOAD ACTIVE UNKNOWN

§ Identity

Operator
Country
US
Launch date
2026-01-29
Launch site
AFWTR
Launch vehicle
Mass (kg)
RCS (m²)

Purposes: comms

External: N2YO · Heavens-Above · Gunter

§ Orbital elements

Epoch: 2026-05-25T04:01:43.848768Z

Period
93.91 min
Inclination
97.2836°
Eccentricity
0.0001094
Mean motion
15.33453956 rev/d
Perigee alt
464.8 km
Apogee alt
466.3 km
Semi-major
6,843.7 km
B*
7.1037e-4
RAAN
210.2780°
Arg perigee
85.6329°
Mean anomaly
274.5038°
Rev number
1,905

§ Raw data

STARLINK-366291 67596U 26018H   26145.16786862  .00022934  00000+0  71037-3 0  99922 67596  97.2836 210.2780 0001094  85.6329 274.5038 15.33453956 19055

JSON: /api/v1/satellites/67596 · /tle

For live sub-satellite position, see the globe view (requires WebGL).

§ Visibility from observer

Set your observer location to see the next 7 days of passes ≥ 10°. The values pass through the URL so the page stays shareable.

No JS? Fill the form by hand. The geolocation button needs JavaScript.